User: anonymous   Login
Location: Trois-Rivi�res
(46.3500°N, 72.5500°W)
Time: 21:26:58
(UTC-04:00)
Language:

Cosmos 1975 - Orbit

View from above orbital plane
View from above orbital plane
View from above satellite
View from above satellite

Ground track
Ground track

The orbit data is extracted from the following two-line orbital elements,

1 19573U 88093A   15208.38515316  .00001153  00000-0  83808-4 0  9992
2 19573 082.5224 293.2615 0016099 126.1904 234.0813 15.02821810456000
Epoch (UTC): 27 July 2015 09:14:37
Eccentricity: 0.0016099
inclination: 82.5224°
perigee height: 547 km
apogee height: 569 km
right ascension of ascending node: 293.2615°
argument of perigee: 126.1904°
revolutions per day: 15.02821810
mean anomaly at epoch: 234.0813°
orbit number at epoch: 45600

The dashed part of the orbit path shows where the satellite is in the earth's shadow,  

DLR